{"data":{"norad_id":56127,"epoch":"2026-05-25T04:56:13.841664Z","epoch_age_seconds":57439,"freshness":"FRESH","line1":"1 56127U 23046AM  26145.20571576 -.00002053  00000+0 -65160-4 0  9990","line2":"2 56127  43.0020  78.1654 0000918 261.2957  98.7790 15.27558171173860","mean_motion":15.27558171,"eccentricity":9.18e-5,"inclination_deg":43.002,"raan_deg":78.1654,"arg_perigee_deg":261.2957,"mean_anomaly_deg":98.779,"bstar":-6.516e-5,"rev_number":17386,"period_min":94.268095797446,"perigee_km":482.48459781288,"apogee_km":483.74432358107,"semimajor_km":6861.251460697,"source":"CELESTRAK","updated_at":"2026-05-25T13:38:17.959835Z"}}